Regional Weather Roundup
Issued by NWS

Home | Current Version | Previous Version | Text Only | Print | Product List | Glossary On
Versions: 1 2 3 4 5 6 7 8 9 10 11 12 13 14 15 16 17 18 19 20 21 22 23 24 25 26 27 28 29 30 31 32 33 34 35 36 37 38 39 40 41 42 43 44 45 46 47 48 49 50
000
ASUS44 KOUN 251700
RWROK

WEATHER ROUNDUP FOR OKLAHOMA
NATIONAL WEATHER SERVICE NORMAN OK
1100 AM CST SUN JAN 25 2015

NOTE: "FAIR" INDICATES FEW OR NO CLOUDS BELOW 12,000 FEET WITH NO
      SIGNIFICANT WEATHER AND/OR OBSTRUCTIONS TO VISIBILITY.

OKZ001>007-009>012-014-015-017-251800-
NORTHWEST OKLAHOMA AND THE PANHANDLE

CITY           SKY/WX    TMP DP  RH WIND       PRES   REMARKS
GAGE           SUNNY     51  23  33 N22G35    30.13R
ENID/WOODRING  MOSUNNY   52  30  43 NW29G37   30.03R
$$

OKZ016-021>023-033>039-044-045-251800-
SOUTHWEST OKLAHOMA

CITY           SKY/WX    TMP DP  RH WIND       PRES   REMARKS
LAWTON/REGL    SUNNY     56  28  34 NW17G28   30.08S
LAWTON/FT SILL SUNNY     56  29  34 N23G35    30.06S
FREDERICK      SUNNY     55  30  38 NW23      30.09F
CLINTON        SUNNY     51  28  41 N26G38    30.10S
HOBART         SUNNY     54  29  38 N26G33    30.11R
$$

OKZ018>020-024>031-251800-
CENTRAL OKLAHOMA

CITY           SKY/WX    TMP DP  RH WIND       PRES   REMARKS
OKLAHOMA CITY  MOSUNNY   53  28  38 N31G43    30.02R
OKC/WILEY POST SUNNY     53  29  39 N30G37    30.03R
STILLWATER     PTSUNNY   51  29  42 NW23G36   29.99R
GUTHRIE        SUNNY     53  29  39 NW15G29   30.02R
$$

OKZ008-013-054>072-251800-
NORTHEAST OKLAHOMA

CITY           SKY/WX    TMP DP  RH WIND       PRES   REMARKS
TULSA          CLOUDY    53  33  46 NW23G31   29.89R
TULSA/JONES    MOSUNNY   55  31  39 NW14G23   29.91R
PONCA CITY     MOSUNNY   52  30  43 NW26G37   29.97R
BARTLESVILLE   PTSUNNY   52  33  48 NW13G28   29.91R
MUSKOGEE       CLOUDY    54  33  45 NW26G35   29.91R
$$

OKZ032-040>043-046>053-073>077-251800-
SOUTH CENTRAL/SOUTHEAST OKLAHOMA

CITY           SKY/WX    TMP DP  RH WIND       PRES   REMARKS
MCALESTER      MOSUNNY   56  33  42 NW18G28   29.94R
$$



USA.gov is the U.S. government's official web portal to all federal, state and local government web resources and services.